SCP
-0 -0 -0 -0 -0 -0 -0 -0 -0 -0 -0 -0 -0 -0 -0 -0 0 -0 -0 0 0 -0 -0 0 0 0 0 0 0 0 0 0 0 0 0 0 0 -0 0 0 0 0 0 0 0 0 0 0 0 0 0 0 0 0
0 -0 -0 -0 -0 -0 -0 -0 -0 -0 -0 -0 -0 -0 -0 -0 -0 -0 -0 -0 -0 0 -0 -0 0 -0 0 0 0 0 0 0 0 0 0 0 0 0 0 0 0 0 0 0 0 0 0 0 0 0 0 0 0 0
-0 -0 -0 -0 -0 -0 -0 -0 -0 -0 -0 -0 -0 -0 -0 -0 -0 0 -0 -0 -0 -0 -0 -0 -0 -0 -0 0 0 0 -0 -0 0 0 0 0 0 0 0 0 0 0 0 0 0 0 0 0 0 0 0 -0 0 0
0 -0 -0 -0 -0 -0 -0 -0 -0 -0 -0 -0 -0 -0 -0 -0 -0 0 0 0 -0 -0 -0 -0 -0 -0 -0 0 0 -0 0 0 0 0 0 0 0 0 0 0 0 0 0 0 0 0 0 0 0 0 0 0 0 0
0 0 -0 -0 -0 -0 -0 -0 -0 -0 -0 -0 -0 -0 -0 0 -0 0 0 0 0 0 0 -0 -0 -0 -0 0 0 0 0 0 -0 0 0 0 0 0 0 0 -0 0 0 0 0 0 0 0 0 0 0 0 0 0
0 0 0 -0 -0 -0 -0 -0 -0 -0 -0 -0 -0 -0 0 0 0 0 0 0 0 0 0 0 -0 -0 -0 0 0 0 0 0 0 0 0 0 0 0 0 0 0 0 0 0 0 0 0 0 0 0 -0 -0 0 0
-0 0 0 0 0 -0 -0 -0 -0 -0 -0 0 0 0 0 0 0 0 0 0 0 0 0 0 0 0 -0 0 0 0 0 0 0 0 0 0 0 0 0 0 -0 0 0 0 0 0 -0 0 -0 0 0 0 0 0
0 -0 0 0 -0 0 0 -0 -0 -0 0 0 0 0 0 -0 0 0 0 0 0 0 0 0 0 0 0 0 0 0 0 0 0 0 0 0 0 0 0 -0 0 0 -0 0 0 0 0 0 0 0 0 0 0 0
0 0 0 0 0 0 0 0 0 0 0 0 0 0 0 0 0 0 0 0 0 0 0 0 0 0 -0 0 0 0 0 0 0 0 0 0 0 0 0 0 0 0 0 0 0 -0 0 0 0 0 0 0 0 0
0 0 0 0 0 0 0 0 0 0 0 -0 -0 -0 0 0 0 0 0 0 0 0 0 0 0 0 0 0 0 0 0 0 0 0 0 0 0 0 0 0 -0 0 0 0 0 0 0 0 0 0 0 0 0 0
0 0 0 0 0 0 0 0 0 0 0 0 0 0 0 0 0 0 0 0 0 0 0 0 0 0 0 0 0 0 0 0 0 0 0 0 0 0 0 0 0 0 0 0 0 0 0 0 0 0 0 0 0 0
0 0 0 0 0 0 0 0 0 0 0 0 0 0 0 0 0 0 0 0 0 0 0 0 0 0 0 0 0 0 0 0 0 0 0 0 0 0 0 0 0 0 0 0 0 0 0 0 0 0 0 0 0 0
0 0 0 0 0 0 0 0 0 0 0 0 0 0 0 0 0 0 0 0 0 0 0 0 0 0 0 0 0 0 0 0 0 0 0 0 0 0 0 0 0 0 0 0 0 0 0 0 0 0 0 0 0 0
0 0 0 0 0 0 0 0 0 0 0 0 0 0 0 0 0 0 0 0 0 0 0 0 0 0 0 0 0 0 0 0 0 0 0 0 0 0 0 0 0 0 0 0 0 0 0 0 0 0 0 0 0 0
0 0 0 0 0 0 0 0 0 0 0 0 0 0 0 0 0 0 0 0 0 0 0 0 0 0 0 0 0 0 0 0 0 0 0 0 0 0 0 0 0 0 0 0 0 0 0 0 0 0 0 0 0 0
0 0 0 0 0 0 0 0 0 0 0 0 0 0 0 0 0 0 0 0 0 0 0 0 0 0 0 0 0 0 0 0 0 0 0 0 0 0 0 0 0 0 0 0 0 0 0 0 0 0 0 0 0 0
0 0 0 0 0 0 0 0 0 0 0 0 0 0 0 0 0 0 0 0 0 0 0 0 0 0 0 0 0 0 0 0 0 0 0 0 0 0 0 0 0 0 0 0 0 0 0 0 0 0 0 0 0 0
0 0 0 0 0 0 0 0 0 0 0 0 0 0 0 0 0 0 0 0 0 0 0 0 0 0 0 0 0 0 0 0 0 0 0 0 0 0 0 0 0 0 0 0 0 0 0 0 0 0 0 0 0 0
0 0 0 0 0 0 0 0 0 0 0 0 0 0 0 0 0 0 0 0 0 0 0 0 0 0 0 0 0 0 0 0 0 0 0 0 0 0 0 0 0 0 0 0 0 0 0 0 0 0 0 0 0 0
0 0 0 0 0 0 0 0 0 0 0 0 0 0 0 0 0 0 0 0 0 0 0 0 0 0 0 0 0 0 0 0 0 0 0 0 0 0 0 0 0 0 0 0 0 0 0 0 0 0 0 0 0 0
0 0 0 0 0 0 0 0 0 0 0 0 0 0 0 0 0 0 0 0 0 0 0 0 0 0 0 0 0 0 0 0 0 0 0 0 0 0 0 0 0 0 0 0 0 0 0 0 0 0 0 0 0 0
0 0 0 0 0 0 0 0 0 0 0 0 0 0 0 0 0 0 0 0 0 0 0 0 0 0 0 0 0 0 0 0 0 0 0 0 0 0 0 0 0 0 0 0 0 0 0 0 0 0 0 0 0 0
0 0 0 0 0 0 0 0 0 0 0 0 0 0 0 0 0 0 0 0 0 0 0 0 0 0 0 0 0 0 0 0 0 0 0 0 0 0 0 0 0 0 0 0 0 0 0 0 0 0 0 0 0 0
0 0 0 0 0 0 0 0 0 0 0 0 0 0 0 0 0 0 0 0 0 0 0 0 0 0 0 0 0 0 0 0 0 0 0 0 0 0 0 0 0 0 0 0 0 0 0 0 0 0 0 0 0 0
0 0 0 0 0 0 0 0 0 0 0 0 0 0 0 0 0 0 0 0 0 0 0 0 0 0 0 0 0 0 0 0 0 0 0 0 0 0 0 0 0 0 0 0 0 0 0 0 0 0 0 0 0 0
0 0 0 0 0 0 0 0 0 0 0 0 0 0 0 0 0 0 0 0 0 0 0 0 0 0 0 0 0 0 0 0 0 0 0 0 0 0 0 0 0 0 0 0 0 0 0 0 0 0 0 0 0 0
0 0 0 0 0 0 0 0 0 0 0 0 0 0 0 0 0 0 0 0 0 0 0 0 0 0 0 0 0 0 0 0 0 0 0 0 0 0 0 0 0 0 0 0 0 0 0 0 0 0 0 0 0 0
0 0 0 0 0 0 0 0 0 0 0 0 0 0 0 0 0 0 0 0 0 0 0 0 0 0 0 0 0 0 0 0 0 0 0 0 0 0 0 0 0 0 0 0 0 0 0 0 0 0 0 0 0 0
0 0 0 0 0 0 0 0 0 0 0 0 0 0 0 0 0 0 0 0 0 0 0 0 0 0 0 0 0 0 0 0 0 0 0 0 0 0 0 0 0 0 0 0 0 0 0 0 0 0 0 0 0 0
0 0 0 0 0 0 0 0 0 0 0 0 0 0 0 0 0 0 0 0 0 0 0 0 0 0 0 0 0 0 0 0 0 0 0 0 0 0 0 0 0 0 0 0 0 0 0 0 0 0 0 0 0 0
0 0 0 0 0 0 0 0 0 0 0 0 0 0 0 0 0 0 0 0 0 0 0 0 0 0 0 0 0 0 0 0 0 0 0 0 0 0 0 0 0 0 0 0 0 0 0 0 0 0 0 0 0 0
0 0 0 0 0 0 0 0 0 0 0 0 0 0 0 0 0 0 0 0 0 0 0 0 0 0 0 0 0 0 0 0 0 0 0 0 0 0 0 0 0 0 0 0 0 0 0 0 0 0 0 0 0 0
0 0 0 0 0 0 0 0 0 0 0 0 0 0 0 0 0 0 0 0 0 0 0 0 0 0 0 0 0 0 0 0 0 0 0 0 0 0 0 0 0 0 0 0 0 0 0 0 0 0 0 0 0 0
Wind_Speed_500mb
10 9 14 19 20 11 9 6 4 4 5 4 4 4 9 10 11 14 16 18 17 8 4 13 13 14 15 12 7 11 4 4 4 3 5 6 5 8 1 5 7 11 8 7 5 11 17 10 2 16 13 23 23 12
15 14 11 12 16 16 14 11 10 7 5 4 4 7 11 14 17 18 17 15 17 9 7 16 20 23 22 19 18 13 3 5 12 6 1 4 4 4 3 5 4 6 13 7 14 11 18 26 28 60 62 57 72 49
11 15 18 15 13 12 12 14 15 16 17 15 15 15 13 15 21 25 21 17 16 10 16 13 11 19 24 28 22 12 11 10 7 10 11 4 7 6 6 11 7 8 15 13 6 25 34 56 64 66 56 60 80 79
14 14 18 22 21 18 15 13 11 12 14 13 10 9 12 15 15 14 14 11 8 5 2 4 4 3 5 18 26 28 15 9 8 4 7 5 5 17 6 8 9 16 8 11 18 32 46 70 68 51 47 50 39 43
14 13 13 19 22 26 23 21 17 14 13 14 16 15 11 7 5 4 6 9 11 8 5 16 35 31 28 20 19 24 27 30 22 7 7 6 8 6 8 7 18 26 14 9 14 40 31 46 56 53 46 44 51 39
15 14 13 13 16 18 23 26 25 21 17 16 16 17 14 8 5 5 2 9 17 20 3 6 8 8 5 5 13 18 22 21 19 10 11 11 15 8 5 8 16 39 43 48 41 63 55 59 53 71 58 50 36 53
19 15 13 11 10 11 16 17 21 25 22 20 17 18 20 14 13 7 3 3 9 12 5 8 8 5 6 8 6 9 15 12 14 9 13 13 15 8 5 19 73 48 55 63 64 64 62 51 59 62 62 61 57 50
22 20 15 12 11 11 13 13 15 17 21 19 19 20 20 19 18 19 22 14 9 7 6 5 6 4 8 5 6 9 8 15 15 12 9 9 8 16 11 43 54 44 39 44 38 38 46 51 52 59 61 53 55 59
28 23 19 15 12 10 8 9 9 11 13 13 14 13 15 16 13 18 24 29 24 16 6 8 6 7 11 5 4 8 6 3 7 5 6 3 3 13 21 36 46 38 28 52 66 55 43 33 35 37 42 41 45 50
35 31 26 22 18 14 11 9 8 6 7 8 10 9 8 7 9 7 4 5 16 15 14 10 11 3 13 9 8 4 7 4 4 6 5 5 9 53 58 56 65 50 23 16 22 26 36 37 41 44 46 44 45 48
43 39 35 30 26 21 16 14 10 8 6 7 8 6 7 12 10 6 6 7 9 6 13 11 29 9 15 6 7 11 4 2 1 8 6 6 7 10 2 8 7 11 17 20 22 24 29 36 45 51 55 54 52 52
53 48 44 40 34 30 24 21 17 14 9 9 6 8 9 8 5 7 3 4 6 10 11 13 12 13 11 11 6 4 4 3 11 2 4 7 9 7 4 14 19 25 29 32 36 40 44 49 52 58 64 66 64 62
62 57 52 49 43 37 32 27 23 20 16 11 9 7 7 5 6 13 14 8 4 14 22 17 6 13 10 11 10 5 5 10 1 1 8 9 9 5 12 17 20 25 30 35 39 46 53 57 59 63 66 63 65 61
67 63 58 53 49 43 37 36 28 25 16 13 13 8 11 7 11 11 9 9 14 14 40 30 16 5 7 6 5 7 3 4 5 4 12 6 9 8 13 20 28 33 39 47 51 55 59 62 63 60 63 62 59 54
65 62 57 53 52 48 43 40 31 31 17 15 13 11 14 21 13 10 24 9 14 36 49 21 13 8 1 5 4 6 4 10 12 10 7 18 6 9 19 25 33 43 52 57 59 64 66 66 67 66 58 53 51 49
62 55 61 59 54 53 52 49 36 32 13 15 21 5 11 5 10 22 29 27 32 50 25 10 7 6 9 7 7 18 10 14 7 7 19 24 10 24 29 35 40 47 53 61 64 64 63 60 61 59 53 47 45 45
60 72 69 59 54 55 70 68 46 22 21 18 19 42 32 13 14 25 37 32 50 44 6 9 11 22 6 3 6 10 11 7 13 18 14 18 30 34 40 46 52 58 63 64 65 60 59 56 53 49 45 38 38 38
77 78 69 58 56 68 71 69 27 22 27 34 11 36 54 41 37 32 33 43 53 36 28 13 12 9 12 14 9 9 36 36 28 29 33 36 35 39 48 52 58 62 63 59 56 56 54 52 47 39 37 34 34 34
87 83 74 65 80 81 41 34 35 16 39 17 46 38 48 35 55 41 45 55 57 38 21 20 10 9 10 11 11 33 39 38 40 43 41 38 47 50 49 54 55 53 51 50 50 48 45 42 38 31 30 31 32 30
80 84 77 72 86 62 25 21 25 29 16 23 29 38 38 28 41 46 45 52 57 20 11 10 12 20 18 33 33 29 49 57 56 56 61 53 48 47 47 48 47 45 43 40 39 41 39 32 28 30 30 28 29 27
78 87 75 83 100 68 30 20 32 19 14 19 19 32 17 22 21 35 42 57 31 17 7 45 68 57 52 62 64 63 67 64 56 52 56 53 43 39 34 32 32 33 34 36 35 31 31 31 29 26 26 27 28 27
87 91 80 98 45 32 49 44 23 28 20 10 25 22 12 10 15 26 31 28 18 30 42 65 64 63 73 73 66 59 56 49 46 46 46 43 37 26 20 22 20 22 27 28 28 28 27 26 25 24 24 24 24 24
84 94 71 50 37 45 18 42 27 32 9 14 24 9 5 9 14 35 14 22 27 46 73 80 75 73 66 59 55 56 50 46 40 34 29 26 21 17 15 16 17 17 17 20 22 24 24 25 25 25 24 24 23 23
82 53 37 43 32 17 28 25 13 21 16 12 12 10 9 12 25 9 9 13 31 46 70 76 76 72 63 61 59 49 37 33 28 22 18 14 12 12 12 12 13 14 16 18 21 23 24 24 25 25 26 25 24 24
31 26 25 15 18 16 13 13 9 7 11 9 12 7 8 18 8 9 7 7 44 59 69 70 71 68 61 51 42 34 30 25 20 16 14 12 9 9 8 8 10 12 16 18 19 18 19 20 22 23 24 24 23 23
27 27 27 26 18 16 21 19 20 12 10 11 7 12 15 7 9 14 8 23 46 52 70 75 72 61 53 47 36 31 26 23 18 15 13 11 8 8 9 10 10 10 10 12 12 14 16 19 21 23 23 24 24 25
17 12 17 22 29 26 9 10 17 9 13 15 12 14 10 12 16 8 11 22 21 30 37 39 35 36 32 35 33 29 25 22 18 15 11 10 10 9 8 5 2 3 6 9 13 16 18 20 21 22 24 25 27 28
9 24 21 16 11 17 13 11 13 18 10 21 24 16 24 18 9 6 8 13 18 21 24 28 30 28 29 32 28 26 24 19 14 12 11 9 7 4 5 8 11 12 14 16 16 17 20 21 22 23 26 29 32 34
6 22 33 10 8 7 7 10 13 12 37 36 18 11 8 10 9 9 13 19 23 24 25 28 31 30 29 29 25 22 17 15 13 13 11 11 13 15 18 19 18 16 16 17 17 18 18 19 22 26 30 35 39 42
11 18 8 7 8 7 4 4 12 35 24 25 26 22 17 16 18 20 21 23 24 24 25 24 26 26 25 23 19 18 16 15 14 14 15 19 22 24 22 20 19 20 19 15 12 13 15 19 23 29 34 39 44 48
10 12 12 9 7 5 26 45 46 40 22 22 25 27 26 22 25 24 18 18 21 22 22 24 23 22 21 19 18 17 18 19 21 20 21 23 24 23 23 24 22 17 12 9 10 12 16 21 28 35 42 48 53 58
11 6 9 10 6 20 18 12 15 16 13 14 15 18 15 13 12 10 17 12 14 15 17 18 18 18 19 20 21 22 21 25 24 22 22 23 25 27 26 22 17 11 6 5 11 17 22 28 35 44 51 57 62 63
12 17 17 13 7 7 9 15 10 9 17 11 15 13 14 12 10 15 18 14 6 11 13 15 16 18 21 23 22 22 26 23 22 23 26 29 29 28 23 18 11 4 4 13 21 27 32 37 44 51 57 63 64 62
Wind_Direction_500mb
194 189 200 202 208 210 189 174 143 113 90 82 83 63 22 12 8 16 22 19 30 16 236 231 225 171 159 172 172 171 106 243 70 82 118 229 174 229 71 243 180 176 176 214 210 230 247 291 34 190 291 283 255 290
209 209 210 212 217 218 216 220 224 227 245 264 287 290 296 305 305 306 313 325 335 337 272 274 250 243 244 246 195 188 224 168 210 94 212 110 256 4 175 277 257 259 193 206 197 227 273 280 264 284 281 301 301 298
235 222 218 220 224 227 234 237 245 253 258 261 271 282 289 304 293 275 267 283 312 314 290 279 272 248 242 237 220 182 189 207 207 205 179 208 231 128 188 234 224 261 224 241 39 260 255 273 286 286 283 283 285 286
262 238 222 225 226 227 230 239 251 266 274 264 267 306 316 330 322 309 224 243 266 298 308 283 321 335 248 222 228 225 216 196 210 270 262 221 203 195 239 256 223 220 181 210 248 270 273 272 279 296 310 292 280 300
241 258 243 230 230 229 230 233 239 252 264 255 261 278 304 330 30 76 227 248 237 234 252 296 296 286 267 250 232 240 239 244 260 255 240 243 237 232 244 247 242 191 205 195 243 263 259 273 293 307 308 302 301 300
236 247 264 252 237 235 235 232 234 238 247 255 256 260 277 295 94 61 359 245 246 239 265 297 297 304 310 218 231 243 237 241 222 213 233 247 252 282 267 259 244 247 249 256 255 280 285 287 291 308 308 303 299 300
230 236 251 252 252 262 244 242 238 238 241 248 254 258 261 250 203 223 218 61 48 135 217 294 290 247 198 187 201 235 222 207 216 227 227 248 247 245 252 263 268 279 286 285 285 286 291 291 307 304 302 306 303 296
229 227 228 237 250 265 259 252 245 243 246 247 251 257 256 251 240 233 238 230 221 261 255 265 271 260 190 188 187 187 194 200 218 228 237 211 205 206 247 245 262 282 299 304 308 298 288 292 291 294 302 304 303 301
225 227 223 230 239 248 257 275 283 247 242 243 247 256 263 248 219 234 245 223 210 225 236 217 178 250 170 184 165 180 213 248 242 242 264 211 257 226 233 261 277 298 300 298 298 299 296 300 306 308 306 308 306 309
225 226 225 219 223 226 235 250 274 264 245 235 228 229 216 198 191 179 141 102 182 212 227 235 200 201 168 156 183 196 208 243 243 252 284 218 254 261 263 276 290 293 297 315 314 333 325 332 333 331 326 322 316 312
227 226 227 226 221 221 221 223 229 233 243 207 207 233 192 175 185 181 120 158 192 280 224 227 204 160 184 137 196 197 191 257 284 256 161 263 274 248 334 309 341 14 15 9 354 341 333 329 328 326 324 319 316 312
225 226 226 227 225 224 221 213 211 209 198 191 183 181 189 197 183 102 228 332 200 225 199 172 172 173 163 178 126 174 168 48 249 347 71 266 250 253 25 42 37 24 13 4 356 349 344 338 331 323 318 315 312 308
228 227 226 225 226 223 221 214 207 197 199 206 211 203 192 183 45 170 206 251 264 199 180 160 145 156 146 177 95 105 143 225 110 94 231 236 253 10 33 25 16 359 350 343 340 334 329 326 323 319 316 315 309 306
229 229 230 225 219 215 211 215 201 190 181 194 183 250 177 230 241 195 189 189 185 175 159 140 120 123 137 129 141 137 212 58 336 274 238 249 174 60 13 350 340 340 336 330 325 319 317 315 311 310 310 310 308 306
229 227 226 222 212 209 209 217 197 195 197 210 191 223 215 219 236 220 209 194 163 157 151 125 101 152 84 120 182 102 21 249 212 230 231 187 164 339 333 329 326 324 324 322 320 316 313 310 307 305 307 310 307 303
224 220 222 221 211 204 206 214 199 200 216 226 224 227 203 183 221 208 201 194 174 160 148 132 123 96 231 156 141 212 166 221 232 217 216 194 269 314 306 309 314 317 319 318 317 315 313 312 309 307 307 310 305 304
217 217 219 214 210 202 206 205 202 201 221 222 237 220 206 216 208 209 208 198 178 163 172 136 163 212 92 82 249 194 212 224 213 213 208 243 289 297 306 313 316 315 313 312 309 310 310 311 309 306 305 303 303 304
216 219 218 207 200 199 196 195 202 223 230 221 202 214 216 224 224 217 198 186 172 187 165 199 149 192 209 195 219 222 235 256 267 271 279 281 288 300 310 312 312 312 310 311 311 311 310 309 307 309 305 307 309 307
215 216 216 207 198 200 192 204 208 242 225 210 212 207 213 221 224 225 216 198 191 183 179 168 223 214 225 219 229 264 277 289 302 302 292 294 303 306 305 307 308 308 310 313 315 316 314 309 307 304 300 301 306 309
217 217 215 211 205 194 193 220 206 232 222 235 212 205 211 219 219 214 209 200 193 182 188 201 212 226 212 234 247 268 285 293 293 287 291 298 301 302 306 306 309 314 317 321 321 322 322 317 307 300 300 306 308 307
214 213 208 201 196 200 207 210 203 225 217 197 196 192 196 198 195 191 196 194 189 211 235 227 242 243 248 257 268 273 279 282 282 282 289 293 299 303 304 304 311 316 323 329 332 335 332 329 326 318 317 316 311 309
212 203 193 196 195 199 209 219 217 186 180 179 166 178 153 165 180 191 181 189 225 221 222 236 245 246 256 260 265 273 279 277 277 279 284 289 297 304 304 308 316 323 328 334 337 340 340 337 333 331 327 322 318 314
207 199 193 189 193 194 213 201 186 182 158 180 157 146 199 196 187 166 212 215 225 220 235 241 245 250 253 258 265 271 275 277 274 275 277 279 287 300 312 318 322 330 337 336 338 340 342 342 341 340 336 332 329 325
193 186 189 179 184 176 172 186 173 147 128 160 164 180 180 165 164 215 253 217 214 217 229 234 237 240 244 253 260 267 266 264 263 261 259 265 270 286 296 302 316 327 335 342 347 345 343 343 346 347 346 342 339 337
178 193 184 174 169 126 150 160 163 182 171 145 159 168 170 158 178 220 236 247 214 222 228 228 229 235 240 250 255 251 246 239 233 234 236 236 245 266 279 302 317 323 329 333 337 340 345 353 357 359 359 357 356 356
204 193 178 170 167 178 183 160 180 157 129 149 173 115 150 160 184 241 207 209 218 226 229 231 233 232 237 241 235 228 217 212 214 213 211 213 230 261 281 290 304 325 346 358 5 18 25 27 29 29 27 24 19 15
199 164 164 163 163 144 97 85 131 139 169 169 160 161 155 184 221 234 216 220 224 229 231 228 223 222 223 210 202 196 197 192 192 199 214 241 261 272 278 288 334 48 57 60 62 60 54 47 39 32 27 23 18 12
155 163 161 171 127 167 131 130 149 178 158 148 139 174 178 196 193 177 200 197 195 185 178 173 176 180 178 175 180 182 181 186 200 219 237 246 252 222 159 135 124 115 105 88 74 67 62 55 45 32 20 11 2 354
124 139 130 129 114 132 168 159 175 162 150 166 160 152 137 95 111 136 140 154 158 156 162 165 162 164 167 170 174 182 193 207 217 223 219 194 169 154 141 132 126 117 106 96 85 71 54 35 21 11 2 355 349 344
156 145 101 99 112 121 62 103 123 138 134 136 123 109 94 95 90 117 133 141 145 151 156 156 156 158 162 167 177 186 190 191 185 169 156 156 153 148 142 135 127 119 108 94 71 50 27 10 359 352 348 344 341 338
104 99 82 55 75 71 108 103 107 101 91 76 84 103 116 122 92 80 103 124 136 142 148 154 159 162 165 167 171 173 167 165 162 157 153 153 152 149 144 138 132 121 108 77 41 11 350 342 341 342 340 339 338 335
43 62 125 112 114 140 112 74 68 65 57 58 64 86 99 93 77 65 44 106 135 145 150 153 158 162 164 163 164 163 160 155 153 154 156 158 158 153 149 146 138 127 96 28 354 341 334 334 338 339 338 336 335 333
84 77 95 111 112 146 137 104 83 87 52 53 50 55 60 77 87 37 29 35 124 156 163 164 166 168 170 169 169 167 164 166 168 168 166 164 164 162 164 162 158 143 5 351 345 339 336 335 335 335 335 334 333 331
Wind_Speed_850mb
10 9 14 19 20 11 9 6 4 4 5 4 4 4 9 10 11 14 16 18 17 8 4 13 13 14 15 12 7 11 4 4 4 3 5 6 5 8 1 5 7 11 8 7 5 11 17 10 2 16 13 23 23 12
15 14 11 12 16 16 14 11 10 7 5 4 4 7 11 14 17 18 17 15 17 9 7 16 20 23 22 19 18 13 3 5 12 6 1 4 4 4 3 5 4 6 13 7 14 11 18 26 28 60 62 57 72 49
11 15 18 15 13 12 12 14 15 16 17 15 15 15 13 15 21 25 21 17 16 10 16 13 11 19 24 28 22 12 11 10 7 10 11 4 7 6 6 11 7 8 15 13 6 25 34 56 64 66 56 60 80 79
14 14 18 22 21 18 15 13 11 12 14 13 10 9 12 15 15 14 14 11 8 5 2 4 4 3 5 18 26 28 15 9 8 4 7 5 5 17 6 8 9 16 8 11 18 32 46 70 68 51 47 50 39 43
14 13 13 19 22 26 23 21 17 14 13 14 16 15 11 7 5 4 6 9 11 8 5 16 35 31 28 20 19 24 27 30 22 7 7 6 8 6 8 7 18 26 14 9 14 40 31 46 56 53 46 44 51 39
15 14 13 13 16 18 23 26 25 21 17 16 16 17 14 8 5 5 2 9 17 20 3 6 8 8 5 5 13 18 22 21 19 10 11 11 15 8 5 8 16 39 43 48 41 63 55 59 53 71 58 50 36 53
19 15 13 11 10 11 16 17 21 25 22 20 17 18 20 14 13 7 3 3 9 12 5 8 8 5 6 8 6 9 15 12 14 9 13 13 15 8 5 19 73 48 55 63 64 64 62 51 59 62 62 61 57 50
22 20 15 12 11 11 13 13 15 17 21 19 19 20 20 19 18 19 22 14 9 7 6 5 6 4 8 5 6 9 8 15 15 12 9 9 8 16 11 43 54 44 39 44 38 38 46 51 52 59 61 53 55 59
28 23 19 15 12 10 8 9 9 11 13 13 14 13 15 16 13 18 24 29 24 16 6 8 6 7 11 5 4 8 6 3 7 5 6 3 3 13 21 36 46 38 28 52 66 55 43 33 35 37 42 41 45 50
35 31 26 22 18 14 11 9 8 6 7 8 10 9 8 7 9 7 4 5 16 15 14 10 11 3 13 9 8 4 7 4 4 6 5 5 9 53 58 56 65 50 23 16 22 26 36 37 41 44 46 44 45 48
43 39 35 30 26 21 16 14 10 8 6 7 8 6 7 12 10 6 6 7 9 6 13 11 29 9 15 6 7 11 4 2 1 8 6 6 7 10 2 8 7 11 17 20 22 24 29 36 45 51 55 54 52 52
53 48 44 40 34 30 24 21 17 14 9 9 6 8 9 8 5 7 3 4 6 10 11 13 12 13 11 11 6 4 4 3 11 2 4 7 9 7 4 14 19 25 29 32 36 40 44 49 52 58 64 66 64 62
62 57 52 49 43 37 32 27 23 20 16 11 9 7 7 5 6 13 14 8 4 14 22 17 6 13 10 11 10 5 5 10 1 1 8 9 9 5 12 17 20 25 30 35 39 46 53 57 59 63 66 63 65 61
67 63 58 53 49 43 37 36 28 25 16 13 13 8 11 7 11 11 9 9 14 14 40 30 16 5 7 6 5 7 3 4 5 4 12 6 9 8 13 20 28 33 39 47 51 55 59 62 63 60 63 62 59 54
65 62 57 53 52 48 43 40 31 31 17 15 13 11 14 21 13 10 24 9 14 36 49 21 13 8 1 5 4 6 4 10 12 10 7 18 6 9 19 25 33 43 52 57 59 64 66 66 67 66 58 53 51 49
62 55 61 59 54 53 52 49 36 32 13 15 21 5 11 5 10 22 29 27 32 50 25 10 7 6 9 7 7 18 10 14 7 7 19 24 10 24 29 35 40 47 53 61 64 64 63 60 61 59 53 47 45 45
60 72 69 59 54 55 70 68 46 22 21 18 19 42 32 13 14 25 37 32 50 44 6 9 11 22 6 3 6 10 11 7 13 18 14 18 30 34 40 46 52 58 63 64 65 60 59 56 53 49 45 38 38 38
77 78 69 58 56 68 71 69 27 22 27 34 11 36 54 41 37 32 33 43 53 36 28 13 12 9 12 14 9 9 36 36 28 29 33 36 35 39 48 52 58 62 63 59 56 56 54 52 47 39 37 34 34 34
87 83 74 65 80 81 41 34 35 16 39 17 46 38 48 35 55 41 45 55 57 38 21 20 10 9 10 11 11 33 39 38 40 43 41 38 47 50 49 54 55 53 51 50 50 48 45 42 38 31 30 31 32 30
80 84 77 72 86 62 25 21 25 29 16 23 29 38 38 28 41 46 45 52 57 20 11 10 12 20 18 33 33 29 49 57 56 56 61 53 48 47 47 48 47 45 43 40 39 41 39 32 28 30 30 28 29 27
78 87 75 83 100 68 30 20 32 19 14 19 19 32 17 22 21 35 42 57 31 17 7 45 68 57 52 62 64 63 67 64 56 52 56 53 43 39 34 32 32 33 34 36 35 31 31 31 29 26 26 27 28 27
87 91 80 98 45 32 49 44 23 28 20 10 25 22 12 10 15 26 31 28 18 30 42 65 64 63 73 73 66 59 56 49 46 46 46 43 37 26 20 22 20 22 27 28 28 28 27 26 25 24 24 24 24 24
84 94 71 50 37 45 18 42 27 32 9 14 24 9 5 9 14 35 14 22 27 46 73 80 75 73 66 59 55 56 50 46 40 34 29 26 21 17 15 16 17 17 17 20 22 24 24 25 25 25 24 24 23 23
82 53 37 43 32 17 28 25 13 21 16 12 12 10 9 12 25 9 9 13 31 46 70 76 76 72 63 61 59 49 37 33 28 22 18 14 12 12 12 12 13 14 16 18 21 23 24 24 25 25 26 25 24 24
31 26 25 15 18 16 13 13 9 7 11 9 12 7 8 18 8 9 7 7 44 59 69 70 71 68 61 51 42 34 30 25 20 16 14 12 9 9 8 8 10 12 16 18 19 18 19 20 22 23 24 24 23 23
27 27 27 26 18 16 21 19 20 12 10 11 7 12 15 7 9 14 8 23 46 52 70 75 72 61 53 47 36 31 26 23 18 15 13 11 8 8 9 10 10 10 10 12 12 14 16 19 21 23 23 24 24 25
17 12 17 22 29 26 9 10 17 9 13 15 12 14 10 12 16 8 11 22 21 30 37 39 35 36 32 35 33 29 25 22 18 15 11 10 10 9 8 5 2 3 6 9 13 16 18 20 21 22 24 25 27 28
9 24 21 16 11 17 13 11 13 18 10 21 24 16 24 18 9 6 8 13 18 21 24 28 30 28 29 32 28 26 24 19 14 12 11 9 7 4 5 8 11 12 14 16 16 17 20 21 22 23 26 29 32 34
6 22 33 10 8 7 7 10 13 12 37 36 18 11 8 10 9 9 13 19 23 24 25 28 31 30 29 29 25 22 17 15 13 13 11 11 13 15 18 19 18 16 16 17 17 18 18 19 22 26 30 35 39 42
11 18 8 7 8 7 4 4 12 35 24 25 26 22 17 16 18 20 21 23 24 24 25 24 26 26 25 23 19 18 16 15 14 14 15 19 22 24 22 20 19 20 19 15 12 13 15 19 23 29 34 39 44 48
10 12 12 9 7 5 26 45 46 40 22 22 25 27 26 22 25 24 18 18 21 22 22 24 23 22 21 19 18 17 18 19 21 20 21 23 24 23 23 24 22 17 12 9 10 12 16 21 28 35 42 48 53 58
11 6 9 10 6 20 18 12 15 16 13 14 15 18 15 13 12 10 17 12 14 15 17 18 18 18 19 20 21 22 21 25 24 22 22 23 25 27 26 22 17 11 6 5 11 17 22 28 35 44 51 57 62 63
12 17 17 13 7 7 9 15 10 9 17 11 15 13 14 12 10 15 18 14 6 11 13 15 16 18 21 23 22 22 26 23 22 23 26 29 29 28 23 18 11 4 4 13 21 27 32 37 44 51 57 63 64 62
Wind_Direction_850mb
194 189 200 202 208 210 189 174 143 113 90 82 83 63 22 12 8 16 22 19 30 16 236 231 225 171 159 172 172 171 106 243 70 82 118 229 174 229 71 243 180 176 176 214 210 230 247 291 34 190 291 283 255 290
209 209 210 212 217 218 216 220 224 227 245 264 287 290 296 305 305 306 313 325 335 337 272 274 250 243 244 246 195 188 224 168 210 94 212 110 256 4 175 277 257 259 193 206 197 227 273 280 264 284 281 301 301 298
235 222 218 220 224 227 234 237 245 253 258 261 271 282 289 304 293 275 267 283 312 314 290 279 272 248 242 237 220 182 189 207 207 205 179 208 231 128 188 234 224 261 224 241 39 260 255 273 286 286 283 283 285 286
262 238 222 225 226 227 230 239 251 266 274 264 267 306 316 330 322 309 224 243 266 298 308 283 321 335 248 222 228 225 216 196 210 270 262 221 203 195 239 256 223 220 181 210 248 270 273 272 279 296 310 292 280 300
241 258 243 230 230 229 230 233 239 252 264 255 261 278 304 330 30 76 227 248 237 234 252 296 296 286 267 250 232 240 239 244 260 255 240 243 237 232 244 247 242 191 205 195 243 263 259 273 293 307 308 302 301 300
236 247 264 252 237 235 235 232 234 238 247 255 256 260 277 295 94 61 359 245 246 239 265 297 297 304 310 218 231 243 237 241 222 213 233 247 252 282 267 259 244 247 249 256 255 280 285 287 291 308 308 303 299 300
230 236 251 252 252 262 244 242 238 238 241 248 254 258 261 250 203 223 218 61 48 135 217 294 290 247 198 187 201 235 222 207 216 227 227 248 247 245 252 263 268 279 286 285 285 286 291 291 307 304 302 306 303 296
229 227 228 237 250 265 259 252 245 243 246 247 251 257 256 251 240 233 238 230 221 261 255 265 271 260 190 188 187 187 194 200 218 228 237 211 205 206 247 245 262 282 299 304 308 298 288 292 291 294 302 304 303 301
225 227 223 230 239 248 257 275 283 247 242 243 247 256 263 248 219 234 245 223 210 225 236 217 178 250 170 184 165 180 213 248 242 242 264 211 257 226 233 261 277 298 300 298 298 299 296 300 306 308 306 308 306 309
225 226 225 219 223 226 235 250 274 264 245 235 228 229 216 198 191 179 141 102 182 212 227 235 200 201 168 156 183 196 208 243 243 252 284 218 254 261 263 276 290 293 297 315 314 333 325 332 333 331 326 322 316 312
227 226 227 226 221 221 221 223 229 233 243 207 207 233 192 175 185 181 120 158 192 280 224 227 204 160 184 137 196 197 191 257 284 256 161 263 274 248 334 309 341 14 15 9 354 341 333 329 328 326 324 319 316 312
225 226 226 227 225 224 221 213 211 209 198 191 183 181 189 197 183 102 228 332 200 225 199 172 172 173 163 178 126 174 168 48 249 347 71 266 250 253 25 42 37 24 13 4 356 349 344 338 331 323 318 315 312 308
228 227 226 225 226 223 221 214 207 197 199 206 211 203 192 183 45 170 206 251 264 199 180 160 145 156 146 177 95 105 143 225 110 94 231 236 253 10 33 25 16 359 350 343 340 334 329 326 323 319 316 315 309 306
229 229 230 225 219 215 211 215 201 190 181 194 183 250 177 230 241 195 189 189 185 175 159 140 120 123 137 129 141 137 212 58 336 274 238 249 174 60 13 350 340 340 336 330 325 319 317 315 311 310 310 310 308 306
229 227 226 222 212 209 209 217 197 195 197 210 191 223 215 219 236 220 209 194 163 157 151 125 101 152 84 120 182 102 21 249 212 230 231 187 164 339 333 329 326 324 324 322 320 316 313 310 307 305 307 310 307 303
224 220 222 221 211 204 206 214 199 200 216 226 224 227 203 183 221 208 201 194 174 160 148 132 123 96 231 156 141 212 166 221 232 217 216 194 269 314 306 309 314 317 319 318 317 315 313 312 309 307 307 310 305 304
217 217 219 214 210 202 206 205 202 201 221 222 237 220 206 216 208 209 208 198 178 163 172 136 163 212 92 82 249 194 212 224 213 213 208 243 289 297 306 313 316 315 313 312 309 310 310 311 309 306 305 303 303 304
216 219 218 207 200 199 196 195 202 223 230 221 202 214 216 224 224 217 198 186 172 187 165 199 149 192 209 195 219 222 235 256 267 271 279 281 288 300 310 312 312 312 310 311 311 311 310 309 307 309 305 307 309 307
215 216 216 207 198 200 192 204 208 242 225 210 212 207 213 221 224 225 216 198 191 183 179 168 223 214 225 219 229 264 277 289 302 302 292 294 303 306 305 307 308 308 310 313 315 316 314 309 307 304 300 301 306 309
217 217 215 211 205 194 193 220 206 232 222 235 212 205 211 219 219 214 209 200 193 182 188 201 212 226 212 234 247 268 285 293 293 287 291 298 301 302 306 306 309 314 317 321 321 322 322 317 307 300 300 306 308 307
214 213 208 201 196 200 207 210 203 225 217 197 196 192 196 198 195 191 196 194 189 211 235 227 242 243 248 257 268 273 279 282 282 282 289 293 299 303 304 304 311 316 323 329 332 335 332 329 326 318 317 316 311 309
212 203 193 196 195 199 209 219 217 186 180 179 166 178 153 165 180 191 181 189 225 221 222 236 245 246 256 260 265 273 279 277 277 279 284 289 297 304 304 308 316 323 328 334 337 340 340 337 333 331 327 322 318 314
207 199 193 189 193 194 213 201 186 182 158 180 157 146 199 196 187 166 212 215 225 220 235 241 245 250 253 258 265 271 275 277 274 275 277 279 287 300 312 318 322 330 337 336 338 340 342 342 341 340 336 332 329 325
193 186 189 179 184 176 172 186 173 147 128 160 164 180 180 165 164 215 253 217 214 217 229 234 237 240 244 253 260 267 266 264 263 261 259 265 270 286 296 302 316 327 335 342 347 345 343 343 346 347 346 342 339 337
178 193 184 174 169 126 150 160 163 182 171 145 159 168 170 158 178 220 236 247 214 222 228 228 229 235 240 250 255 251 246 239 233 234 236 236 245 266 279 302 317 323 329 333 337 340 345 353 357 359 359 357 356 356
204 193 178 170 167 178 183 160 180 157 129 149 173 115 150 160 184 241 207 209 218 226 229 231 233 232 237 241 235 228 217 212 214 213 211 213 230 261 281 290 304 325 346 358 5 18 25 27 29 29 27 24 19 15
199 164 164 163 163 144 97 85 131 139 169 169 160 161 155 184 221 234 216 220 224 229 231 228 223 222 223 210 202 196 197 192 192 199 214 241 261 272 278 288 334 48 57 60 62 60 54 47 39 32 27 23 18 12
155 163 161 171 127 167 131 130 149 178 158 148 139 174 178 196 193 177 200 197 195 185 178 173 176 180 178 175 180 182 181 186 200 219 237 246 252 222 159 135 124 115 105 88 74 67 62 55 45 32 20 11 2 354
124 139 130 129 114 132 168 159 175 162 150 166 160 152 137 95 111 136 140 154 158 156 162 165 162 164 167 170 174 182 193 207 217 223 219 194 169 154 141 132 126 117 106 96 85 71 54 35 21 11 2 355 349 344
156 145 101 99 112 121 62 103 123 138 134 136 123 109 94 95 90 117 133 141 145 151 156 156 156 158 162 167 177 186 190 191 185 169 156 156 153 148 142 135 127 119 108 94 71 50 27 10 359 352 348 344 341 338
104 99 82 55 75 71 108 103 107 101 91 76 84 103 116 122 92 80 103 124 136 142 148 154 159 162 165 167 171 173 167 165 162 157 153 153 152 149 144 138 132 121 108 77 41 11 350 342 341 342 340 339 338 335
43 62 125 112 114 140 112 74 68 65 57 58 64 86 99 93 77 65 44 106 135 145 150 153 158 162 164 163 164 163 160 155 153 154 156 158 158 153 149 146 138 127 96 28 354 341 334 334 338 339 338 336 335 333
84 77 95 111 112 146 137 104 83 87 52 53 50 55 60 77 87 37 29 35 124 156 163 164 166 168 170 169 169 167 164 166 168 168 166 164 164 162 164 162 158 143 5 351 345 339 336 335 335 335 335 334 333 331